METEOR 2-11 DEB

Satellite information

Favourite Embed

Satellite Type and Status

DEBRISIN ORBIT

Key statistics

Satellite METEOR 2-11 DEB at a glance.

Uptime

14977

Days in orbit

Revolutions

≈ 14.0

Per day

Orbit

LEO

Low Earth Orbit

Inclination

82.5

Latest

Satellite identification and parameters

Extended collection of information and parameters for METEOR 2-11 DEB.

Object identification

Identified? True

Debris? True

Object name: METEOR 2-11 DEB

International designator: 1984-072Y

Object number (NORAD): 60003

Object ID (CCSDS): 60003

Country: COMMONWEALTH OF INDEPENDENT STATES (CIS)

Current information (Y/N): Y

RCS size: SMALL

Orbital parameters

Period: 103.201 minutes

Inclination: 82.534 deg

SMA: 7288.148 km

Apoapsis: 923.574 km

Periapsis: 896.451 km

RAAN: 298.0665 deg

Eccentricy: 0.0018608

Argument of periapsis: 261.6074 deg

Mean anomaly: 98.2982 deg

Mean motion: 13.95330276 rev/day

Mean motion (dot): 0.00002444 rev/day2

B* drag term: 0.0017932 1/REarth

Two-line elements (TLE)

Creation date: July 3, 2025, 10:46 p.m.

Reference frame: TEME

Reference center: EARTH

Epoch: July 3, 2025, 1:51 p.m. UTC

TLE line 0: 0 METEOR 2-11 DEB

TLE line 1: 1 60003U 84072Y 25184.57733694 .00002444 00000-0 17932-2 0 9992

TLE line 2: 2 60003 82.5340 298.0665 0018608 261.6074 98.2982 13.95330276417636

Live tracking on map

Real-time ground track for satellite METEOR 2-11 DEB.

In-orbit conjunctions

A list of the most updated potential collisions computed for object METEOR 2-11 DEB.

Target Orbit TCA Probability of collision Miss distance Type
GGSE 5 LEO 2025-06-15 02:08:15 0.0006000822 972.0 (m) PAYLOAD
THOR ABLESTAR DEB LEO 2025-02-26 23:20:41 0.000125488 983.0 (m) DEBRIS
CZ-6A DEB LEO 2024-11-01 17:53:43 0.001466999 240.0 (m) DEBRIS
FENGYUN 1C DEB SSO 2024-10-20 17:27:53 0.0001344494 306.0 (m) DEBRIS
FENGYUN 1C DEB SSO 2024-09-15 22:21:50 0.0001865824 163.0 (m) DEBRIS

Associated space launch

Second generation soviet meteorological satellite

METEOR 2-11 DEB was lifted into orbit during the mission ‘Tsiklon-3 | Meteor-2 11’, on board a Tsiklon-3 space rocket.

The launch took place on July 5, 1984, 3:35 a.m. from 32/2.

For more information about the launch, click the button.

Launch to space Tsiklon-3 | Meteor-2 11
Tsiklon-3 | Meteor-2 11

Agency: N/A

Status: Launch Successful

Launch date: July 5, 1984, 3:35 a.m. UTC

Rocket: Tsiklon-3

Launch pad: 32/2

Location: Plesetsk Cosmodrome, Russian Federation

...

Latest news about this satellite

There are no fresh news available about this satellite. Check back as we update our databases every day.


Newsletter sign-up

Weekly statistics, charts and insights to help you stay on top of the space industry.